Location: *
(46.1006°N, 1.8394°E)
Time: 12:16:23
(UTC+00:00)

Nadezhda 3 Rocket - Pass Details

Date: 20 September 2019
Orbit: 958 x 999 km, 82.9° (Epoch: 15 October)

Event Time Altitude Azimuth Distance (km) Brightness Sun altitude
Exits shadow 21:23:42 59° 287° (WNW) 1,111 4.4 -33.5°
Drops below altitude 10° 21:29:44 10° 2° (N) 2,723 6.8 -34.2°
Sets 21:32:19 0° 6° (N) 3,680 7.5 -34.5°
